OBJECT AU (43800 NORAD) Tracking and Keplerian Element Data

This shows tracking and keplerian element data for the satellite.

Feedback or suggestion? Click here.




ElementValue
Catalog43800
NameOBJECT AU
Epoch Orbit463
Epoch Day3.80843624
Epoch Year2019
RAAN77.654
Inclination97.7645
Eccentricity0.0015013
Argument of Perigee152.9173
Mean Anonmoly207.2834
Mean Motion14.94959188
Decay Rate4.83E-06
L11 43800U 18099AU 19003.80843624 .00000483 00000-0 49460-4 0 9992
L22 43800 97.7645 77.6540 0015013 152.9173 207.2834 14.94959188 4639

Live tracking and technical data element details for OBJECT AU (NORAD 43800). OBJECT AU can be tracked NOW for your location showing map with azimuth and elevation plus other details from your city location.

Track the satellite on the map from your city or location and see movement details for azimuth, elevation, latitude, longitude, range, height, and movement on the map or in text.







IsCatalogInMostPopularTable: catalog: 43800, numindb: 130
Update: records affected: 1



GetName: 43800 OBJECT AU

Hit Count: updated at: Tue, 17 Sep 2019 20:35:21 GMT